Change the Weather History Date:

Friday, November 11, 2011

  Actual Average Record
Temperature  
Mean Temperature 60 °F -  
Max Temperature 64 °F 57 °F 71 °F (2006)
Min Temperature 53 °F 45 °F 35 °F (2007)
Degree Days  
Heating Degree Days 6    
Growing Degree Days 10 (Base 50)    
Moisture  
Dew Point 56 °F    
Average Humidity 92    
Maximum Humidity 100    
Minimum Humidity 73    
Precipitation  
Precipitation 0.00 in - - ()
Sea Level Pressure  
Sea Level Pressure 29.87 in    
Wind  
Wind Speed 7 mph ()    
Max Wind Speed 22 mph    
Max Gust Speed 39 mph    
Visibility 6.0 miles    
Events Rain    
Averages and records for this station are not official NWS values.
T = Trace of Precipitation, MM = Missing Value Source: Averaged Metar Reports

Daily Weather History Graph

Daily Weather History Graph

Search for Another Location

Airport or City:

Trip Planner

Search our weather history database for the weather conditions in past years. The results will help you decide how hot, cold, wet, or windy it might be!

Date:

Astronomy

Nov. 11, 2011 Rise Set
Actual Time 8:20 AM CET 6:13 PM CET
Civil Twilight 7:50 AM CET 6:43 PM CET
Nautical Twilight 7:16 AM CET 7:18 PM CET
Astronomical Twilight 6:42 AM CET 7:51 PM CET
Moon 6:30 PM CET (11/11) 8:59 AM CET (11/11)
Length of Visible Light 10h 53m
Length of Day
9h 52m
Full, 100% of the Moon is Illuminated
Nov 11
Full
Nov 18
Last Quarter
Nov 25
New
Dec 2
First Quarter
Dec 10
Full

Hourly Weather History & Observations

Time (CET) Temp. Dew Point Humidity Pressure Visibility Wind Dir Wind Speed Gust Speed Precip Events Conditions
12:00 AM 59.0 °F 59.0 °F 100% 29.71 in 5.6 mi South 10.4 mph - N/A Rain Light Rain
12:07 AM 60.8 °F 59.0 °F 94% 29.74 in 4.3 mi South 11.5 mph - N/A Rain Rain
12:30 AM 60.8 °F 57.2 °F 88% 29.74 in 4.3 mi SW 21.9 mph 39.1 mph N/A Rain Rain
1:00 AM 59.0 °F 57.2 °F 94% 29.74 in 4.3 mi SSW 13.8 mph 26.5 mph N/A Rain Rain
5:30 AM 57.2 °F 57.2 °F 100% 29.77 in 6.2 mi South 8.1 mph - N/A   Scattered Clouds
6:00 AM 57.2 °F 57.2 °F 100% 29.77 in 6.2 mi SSE 6.9 mph - N/A Rain Light Rain
6:30 AM 57.2 °F 55.4 °F 94% 29.77 in 6.2 mi SSE 4.6 mph - N/A Rain Light Rain
7:00 AM 57.2 °F 57.2 °F 100% 29.77 in 6.2 mi SE 8.1 mph - N/A   Scattered Clouds
7:30 AM 57.2 °F 57.2 °F 100% 29.77 in 6.2 mi SSE 5.8 mph - N/A Rain Light Rain
7:46 AM 55.4 °F 55.4 °F 100% 29.80 in 4.3 mi South 5.8 mph - N/A Rain Rain
8:00 AM 55.4 °F 55.4 °F 100% 29.80 in 5.0 mi South 4.6 mph - N/A Rain Rain
8:09 AM 55.4 °F 55.4 °F 100% 29.80 in 6.2 mi Variable 2.3 mph - N/A Rain Light Rain
8:30 AM 55.4 °F 55.4 °F 100% 29.80 in 6.2 mi SE 4.6 mph - N/A Rain Light Rain
9:00 AM 55.4 °F 55.4 °F 100% 29.80 in 6.2 mi SE 4.6 mph - N/A Rain Light Rain
9:11 AM 55.4 °F 55.4 °F 100% 29.83 in 6.2 mi SSE 5.8 mph - N/A Rain Rain
9:30 AM 55.4 °F 55.4 °F 100% 29.83 in 6.2 mi SSE 6.9 mph - N/A Rain Rain
10:00 AM 55.4 °F 55.4 °F 100% 29.83 in 6.2 mi SSE 5.8 mph - N/A Rain Light Rain
10:30 AM 57.2 °F 57.2 °F 100% 29.83 in 6.2 mi SSE 4.6 mph - N/A   Mostly Cloudy
11:00 AM 57.2 °F 57.2 °F 100% 29.86 in 6.2 mi Variable 2.3 mph - N/A   Mostly Cloudy
11:30 AM 59.0 °F 59.0 °F 100% 29.86 in 6.2 mi SSE 3.5 mph - N/A   Mostly Cloudy
12:00 PM 57.2 °F 57.2 °F 100% 29.86 in 6.2 mi SSE 6.9 mph - N/A   Mostly Cloudy
12:30 PM 59.0 °F 59.0 °F 100% 29.86 in 6.2 mi SSE 5.8 mph - N/A   Scattered Clouds
1:00 PM 59.0 °F 59.0 °F 100% 29.86 in 6.2 mi SSE 3.5 mph - N/A   Scattered Clouds
1:30 PM 60.8 °F 57.2 °F 88% 29.86 in 6.2 mi South 6.9 mph - N/A   Scattered Clouds
2:00 PM 60.8 °F 57.2 °F 88% 29.86 in 6.2 mi South 6.9 mph - N/A   Mostly Cloudy
2:30 PM 64.4 °F 57.2 °F 77% 29.86 in 6.2 mi SSW 8.1 mph - N/A   Scattered Clouds
3:00 PM 64.4 °F 57.2 °F 77% 29.86 in 6.2 mi South 8.1 mph - N/A   Partly Cloudy
3:30 PM 64.4 °F 55.4 °F 73% 29.89 in 6.2 mi South 8.1 mph - N/A   Scattered Clouds
4:00 PM 62.6 °F 55.4 °F 77% 29.89 in 6.2 mi SSW 6.9 mph - N/A   Scattered Clouds
4:30 PM 64.4 °F 55.4 °F 73% 29.89 in 6.2 mi South 8.1 mph - N/A   Scattered Clouds
5:00 PM 62.6 °F 55.4 °F 77% 29.92 in 6.2 mi South 6.9 mph - N/A   Scattered Clouds
5:30 PM 62.6 °F 55.4 °F 77% 29.92 in 6.2 mi South 3.5 mph - N/A   Scattered Clouds
6:00 PM 60.8 °F 55.4 °F 82% 29.92 in 6.2 mi Variable 1.2 mph - N/A   Partly Cloudy
6:30 PM 59.0 °F 55.4 °F 88% 29.95 in 6.2 mi SSE 4.6 mph - N/A   Partly Cloudy
7:00 PM 57.2 °F 53.6 °F 88% 29.95 in 6.2 mi Variable 2.3 mph - N/A   Partly Cloudy
7:30 PM 57.2 °F 53.6 °F 88% 29.95 in 6.2 mi Variable 2.3 mph - N/A   Partly Cloudy
8:00 PM 57.2 °F 51.8 °F 82% 29.98 in 6.2 mi SSW 5.8 mph - N/A   Partly Cloudy
8:30 PM 57.2 °F 53.6 °F 88% 29.98 in 6.2 mi SW 6.9 mph - N/A   Partly Cloudy
9:00 PM 57.2 °F 53.6 °F 88% 29.98 in 6.2 mi SSW 6.9 mph - N/A   Partly Cloudy
9:30 PM 59.0 °F 53.6 °F 82% 30.01 in 6.2 mi SSW 10.4 mph - N/A   Partly Cloudy
10:00 PM 57.2 °F 53.6 °F 88% 30.01 in 6.2 mi SSW 8.1 mph - N/A   Partly Cloudy
10:30 PM 55.4 °F 53.6 °F 94% 30.01 in 6.2 mi SE 4.6 mph - N/A   Partly Cloudy
11:00 PM 55.4 °F 53.6 °F 94% 30.01 in 6.2 mi SE 5.8 mph - N/A   Partly Cloudy
11:30 PM 53.6 °F 53.6 °F 100% 30.01 in 6.2 mi East 4.6 mph - N/A   Partly Cloudy